FW7184 Weather Reports


Display with metric or nautical units.
time (UTC)temp
F
wind
direction
speed
MPH
gust
MPH
rain 1hr
in
rain 24hr
in
rain mn
in
humidity
%
barometer
mb
20260902053039 63 188 0.0 0.0 0.00 0.01 0.01 99 1019.8
20260902052533 63 201 0.0 0.0 0.00 0.01 0.01 99 1019.8
20260902052030 63 204 0.0 0.0 0.00 0.01 0.01 99 1019.6
20260902051529 63 195 0.0 0.0 0.00 0.01 0.01 99 1019.6
20260902051028 63 194 0.0 0.0 0.00 0.01 0.01 99 1019.7
20260902050522 63 203 0.0 0.0 0.05 0.01 0.01 99 1019.8
20260902050018 63 200 0.0 0.0 0.05 0.01 0.01 99 1019.7
20260902045513 63 202 0.0 0.0 0.00 0.00 0.00 99 1019.8
20260902045010 63 196 0.0 0.0 0.00 0.00 0.00 99 1019.8
20260902044509 63 203 0.0 0.0 0.00 0.00 0.00 99 1019.7
20260902044005 63 194 0.0 0.0 0.00 0.00 0.00 99 1019.7
20260902043500 63 189 0.0 0.0 0.00 0.00 0.00 99 1020.0
20260902042955 63 205 0.0 0.0 0.00 0.00 0.00 99 1019.6
20260902042454 63 200 0.0 0.0 0.00 0.00 0.00 99 1019.6
20260902041944 63 203 0.0 1.0 0.00 0.00 0.00 99 1019.5
20260902041439 63 204 0.0 0.0 0.00 0.00 0.00 99 1019.4
20260902040938 63 198 0.0 0.0 0.00 0.00 0.00 99 1019.4
20260902040433 63 193 0.0 0.0 0.00 0.00 0.00 99 1019.5
20260902035932 63 185 0.0 0.0 0.00 1.74 1.74 99 1019.2
20260902035427 63 185 0.0 0.0 0.00 1.74 1.74 99 1019.0
20260902034927 63 180 0.0 0.0 0.00 1.74 1.74 99 1019.0
20260902034421 63 210 0.0 0.0 0.00 1.74 1.74 99 1019.1
20260902033921 63 169 0.0 0.0 0.00 1.74 1.74 99 1019.0
20260902033414 63 189 0.0 0.0 0.00 1.74 1.74 99 1019.0
20260902032914 63 168 0.0 0.0 0.00 1.74 1.74 99 1018.8
20260902032408 63 193 0.0 0.0 0.00 1.74 1.74 99 1018.8
20260902031903 63 61 1.0 1.0 0.00 1.74 1.74 99 1018.7
20260902031358 63 206 0.0 0.0 0.00 1.74 1.74 99 1018.7
20260902030855 63 196 0.0 0.0 0.00 1.74 1.74 99 1018.7
20260902030349 63 194 0.0 0.0 0.00 1.74 1.74 99 1018.4
20260902025848 64 186 0.0 0.0 0.00 1.74 1.74 99 1018.4
20260902025344 63 184 1.0 1.0 0.00 1.74 1.74 99 1018.6
20260902024838 63 194 0.0 0.0 0.00 1.74 1.74 99 1018.4
20260902024333 64 191 0.0 0.0 0.00 1.74 1.74 99 1018.2
20260902023828 64 190 0.0 0.0 0.00 1.74 1.74 99 1018.2
20260902023324 64 162 2.0 2.0 0.00 1.74 1.74 99 1017.8
20260902022823 64 187 0.0 0.0 0.00 1.74 1.74 99 1018.0
20260902022319 64 147 0.0 0.0 0.00 1.74 1.74 99 1018.1
20260902021815 64 139 0.0 1.0 0.00 1.74 1.74 99 1018.1
20260902021314 64 148 0.0 0.0 0.00 1.74 1.74 99 1018.2
20260902020805 64 197 0.0 0.0 0.00 1.74 1.74 99 1018.2
20260902020301 64 192 1.0 2.0 0.00 1.74 1.74 99 1018.2
20260902015756 64 187 0.0 0.0 0.00 1.74 1.74 99 1018.3
20260902015252 64 199 0.0 0.0 0.00 1.74 1.74 99 1018.2
20260902014748 64 243 0.0 1.0 0.00 1.74 1.74 99 1018.1
20260902014244 65 179 1.0 2.0 0.00 1.74 1.74 99 1017.7
20260902013743 64 122 0.0 0.0 0.00 1.74 1.74 99 1017.7
20260902013238 65 63 1.0 1.0 0.00 1.74 1.74 99 1017.5
20260902012733 65 143 1.0 2.0 0.00 1.74 1.74 99 1017.3
20260902012230 65 96 0.0 1.0 0.00 1.74 1.74 99 1017.3
20260902011725 65 188 0.0 0.0 0.00 1.74 1.74 99 1017.2
20260902011224 65 147 3.0 3.0 0.00 1.74 1.74 99 1017.0
20260902010723 66 199 0.0 0.0 0.00 1.74 1.74 99 1017.2
20260902010219 66 189 0.0 1.0 0.00 1.74 1.74 99 1017.2
20260902005718 66 173 0.0 0.0 0.00 1.74 1.74 99 1017.0
20260902005214 66 173 1.0 1.0 0.00 1.74 1.74 99 1016.8
20260902004714 66 189 0.0 0.0 0.00 1.74 1.74 99 1016.8
20260902004209 66 188 0.0 0.0 0.00 1.74 1.74 99 1017.0
20260902003704 66 163 0.0 0.0 0.00 1.74 1.74 99 1016.9
20260902003159 67 161 0.0 1.0 0.00 1.74 1.74 99 1016.8
20260902002654 67 134 0.0 0.0 0.07 1.74 1.74 99 1017.0
20260902002155 67 180 0.0 1.0 0.00 1.73 1.73 99 1016.7
20260902001650 68 172 0.0 0.0 0.19 1.73 1.73 99 1016.6
20260902001149 69 102 0.0 0.0 0.66 1.72 1.72 99 1016.4
20260902000645 69 187 0.0 1.0 0.40 1.68 1.68 98 1016.0
20260902000140 69 158 1.0 2.0 0.00 1.61 1.61 98 1016.0
20260901235640 70 176 3.0 3.0 0.00 1.61 1.61 98 1016.0
20260901235135 70 169 0.0 1.0 0.00 1.61 1.61 98 1016.2
20260901234634 71 140 0.0 0.0 0.00 1.61 1.61 99 1015.9
20260901234130 72 169 0.0 0.0 0.00 1.61 1.61 99 1016.1
20260901233624 72 182 0.0 0.0 0.00 1.61 1.61 99 1016.2
20260901233121 73 175 0.0 0.0 0.00 1.61 1.61 98 1016.1
20260901232620 73 190 0.0 0.0 0.00 1.61 1.61 98 1015.8
20260901232115 74 184 0.0 0.0 0.00 1.61 1.61 98 1015.7
20260901231612 74 165 0.0 0.0 0.00 1.61 1.61 98 1015.7
20260901231109 75 188 0.0 0.0 0.00 1.61 1.61 98 1015.2
20260901230604 75 169 0.0 0.0 0.00 1.61 1.61 98 1015.3
20260901230103 75 184 0.0 0.0 0.00 1.61 1.61 98 1015.4
20260901225559 75 197 0.0 0.0 0.00 1.61 1.61 98 1015.5
20260901225058 75 189 0.0 0.0 0.00 1.61 1.61 97 1015.6
20260901224554 76 190 0.0 0.0 0.00 1.61 1.61 97 1015.5
20260901224050 76 194 0.0 0.0 0.00 1.61 1.61 97 1015.0
20260901223546 76 186 0.0 0.0 0.00 1.61 1.61 97 1014.8
20260901223041 76 197 0.0 0.0 0.00 1.61 1.61 96 1015.0
20260901222537 76 184 0.0 0.0 0.00 1.61 1.61 96 1014.8
20260901222032 76 192 0.0 0.0 0.00 1.61 1.61 95 1014.8
20260901221529 77 186 0.0 0.0 0.00 1.61 1.61 95 1015.0
20260901221023 77 197 0.0 0.0 0.00 1.61 1.61 94 1014.8
20260901220518 77 200 0.0 0.0 0.00 1.61 1.61 94 1015.0
20260901220016 77 192 0.0 0.0 0.00 1.61 1.61 93 1015.1
20260901215515 77 199 0.0 0.0 0.00 1.61 1.61 94 1015.1
20260901215014 77 200 0.0 0.0 0.00 1.61 1.61 94 1015.1
20260901214514 77 199 0.0 0.0 0.00 1.61 1.61 94 1014.9
20260901214008 77 200 0.0 0.0 0.00 1.61 1.61 94 1015.0
20260901213502 77 200 0.0 0.0 0.00 1.61 1.61 94 1015.0
20260901213002 77 200 0.0 0.0 0.00 1.61 1.61 94 1015.0
20260901212457 76 200 0.0 0.0 0.00 1.61 1.61 94 1015.1
20260901211953 77 200 0.0 0.0 0.00 1.61 1.61 94 1015.1
20260901211449 77 199 0.0 0.0 0.00 1.61 1.61 95 1015.2
20260901210945 77 207 0.0 0.0 0.00 1.61 1.61 94 1015.0
20260901210440 77 198 0.0 0.0 0.00 1.61 1.61 94 1015.0
20260901205937 77 200 0.0 0.0 0.00 1.61 1.61 94 1015.0
20260901205436 77 200 0.0 0.0 0.00 1.61 1.61 93 1015.0
20260901204931 77 199 0.0 0.0 0.00 1.61 1.61 93 1015.1
20260901204428 77 200 0.0 0.0 0.00 1.61 1.61 92 1015.0
20260901203922 77 200 0.0 0.0 0.00 1.61 1.61 92 1015.2
20260901203417 77 202 0.0 0.0 0.00 1.61 1.61 93 1015.0
20260901202912 77 201 0.0 0.0 0.00 1.61 1.61 92 1015.1
20260901202406 77 203 0.0 0.0 0.00 1.61 1.61 92 1015.0
20260901201903 77 202 0.0 0.0 0.00 1.61 1.61 93 1015.1
20260901201402 77 204 0.0 0.0 0.00 1.61 1.61 93 1015.1
20260901200856 77 202 0.0 0.0 0.00 1.61 1.61 93 1014.9
20260901200352 77 200 0.0 0.0 0.00 1.61 1.61 93 1014.8
20260901195850 77 200 0.0 0.0 0.00 1.61 1.61 93 1015.1
20260901195349 77 203 0.0 0.0 0.00 1.61 1.61 93 1015.1
20260901194845 77 195 0.0 0.0 0.00 1.61 1.61 91 1015.0
20260901194338 77 207 0.0 0.0 0.00 1.61 1.61 91 1015.2
20260901193836 77 206 0.0 0.0 0.00 1.61 1.61 94 1015.3
20260901193334 76 201 1.0 1.0 0.00 1.61 1.61 94 1015.2
20260901192829 76 206 0.0 0.0 0.00 1.61 1.61 99 1015.1
20260901192324 75 210 0.0 0.0 0.00 1.61 1.61 99 1015.4
20260901191821 75 229 1.0 1.0 0.00 1.61 1.61 99 1015.2
20260901191316 75 215 0.0 0.0 0.00 1.61 1.61 99 1015.2
20260901190812 75 214 0.0 0.0 0.00 1.61 1.61 99 1015.2
20260901190311 75 208 1.0 2.0 0.00 1.61 1.61 99 1015.1
20260901185810 75 205 0.0 0.0 0.00 1.61 1.61 99 1015.0
20260901185309 74 209 0.0 1.0 0.00 1.61 1.61 99 1015.0
20260901184804 75 216 0.0 1.0 0.00 1.61 1.61 99 1015.0
20260901184300 75 210 0.0 0.0 0.00 1.61 1.61 99 1015.2
20260901183755 74 199 0.0 0.0 0.00 1.61 1.61 99 1015.1
20260901183254 74 212 0.0 0.0 0.00 1.61 1.61 99 1015.2
20260901182751 73 210 0.0 0.0 0.00 1.61 1.61 99 1015.1
20260901182250 73 204 0.0 0.0 0.00 1.61 1.61 99 1015.2
20260901181745 73 238 1.0 1.0 0.00 1.61 1.61 99 1015.4
20260901181240 73 194 0.0 0.0 0.00 1.61 1.61 99 1015.6
20260901180739 73 208 0.0 0.0 0.00 1.61 1.61 99 1015.4
20260901180238 73 208 0.0 0.0 0.00 1.61 1.61 99 1015.2
20260901175737 74 200 0.0 0.0 0.00 1.61 1.61 99 1015.3
20260901175232 73 209 0.0 0.0 0.00 1.61 1.61 99 1015.2
20260901174727 73 206 0.0 0.0 0.00 1.61 1.61 99 1015.1
20260901174223 72 206 0.0 0.0 0.00 1.61 1.61 99 1015.3
20260901173719 72 202 0.0 0.0 0.00 1.61 1.61 99 1015.5
20260901173219 72 205 0.0 0.0 0.00 1.61 1.61 99 1015.5
20260901172716 73 197 0.0 0.0 0.00 1.61 1.61 99 1015.3
20260901172214 72 199 0.0 0.0 0.00 1.61 1.61 99 1015.5
20260901171712 72 202 0.0 0.0 0.00 1.61 1.61 99 1015.5
20260901171207 72 264 1.0 2.0 0.00 1.61 1.61 99 1015.3
20260901170706 72 203 0.0 0.0 0.00 1.61 1.61 99 1015.3
20260901170201 72 202 0.0 0.0 0.00 1.61 1.61 99 1015.5
20260901165700 72 203 1.0 1.0 0.00 1.61 1.61 99 1015.5
20260901165155 72 205 0.0 0.0 0.00 1.61 1.61 99 1015.6
20260901164651 72 211 0.0 0.0 0.00 1.61 1.61 99 1015.5
20260901164146 72 211 0.0 0.0 0.00 1.61 1.61 99 1015.5
20260901163641 71 199 0.0 0.0 0.00 1.61 1.61 99 1015.7
20260901163140 71 240 0.0 0.0 0.00 1.61 1.61 99 1015.5
20260901162636 71 205 0.0 0.0 0.07 1.61 1.61 99 1015.7
20260901162135 71 203 0.0 0.0 0.07 1.61 1.61 99 1016.2
20260901161634 71 204 0.0 0.0 0.00 1.60 1.60 99 1016.0
20260901161133 71 198 0.0 0.0 0.00 1.60 1.60 99 1015.9
20260901160630 71 198 0.0 0.0 0.00 1.60 1.60 99 1015.8
20260901160125 71 204 0.0 0.0 0.00 1.60 1.60 99 1016.0
20260901155624 71 203 0.0 0.0 0.00 1.60 1.60 99 1016.1
20260901155119 71 199 0.0 0.0 0.05 1.60 1.60 99 1016.5
20260901154614 71 205 0.0 0.0 0.12 1.60 1.60 99 1016.9
20260901154109 71 195 0.0 0.0 0.19 1.59 1.59 99 1016.6
20260901153604 71 212 0.0 0.0 0.24 1.58 1.58 99 1016.7
20260901153103 71 214 0.0 0.0 0.12 1.55 1.55 99 1016.5
20260901152558 71 199 0.0 0.0 0.12 1.53 1.53 99 1016.6
20260901152056 71 210 0.0 0.0 0.12 1.52 1.52 99 1016.8
20260901151553 70 201 0.0 0.0 0.12 1.51 1.51 99 1016.9
20260901151047 71 205 0.0 0.0 0.12 1.50 1.50 99 1016.9
20260901150545 71 203 0.0 1.0 0.07 1.48 1.48 99 1016.9
20260901150043 71 200 0.0 0.0 0.00 1.47 1.47 99 1016.6
20260901145537 71 202 0.0 0.0 0.00 1.47 1.47 99 1016.7
20260901145036 70 218 0.0 0.0 0.00 1.47 1.47 99 1016.5
20260901144532 70 204 0.0 0.0 0.07 1.47 1.47 99 1016.7
20260901144027 70 202 0.0 0.0 0.07 1.47 1.47 99 1016.7
20260901143522 70 204 0.0 0.0 0.00 1.46 1.46 99 1016.6
20260901143014 70 202 0.0 0.0 0.05 1.46 1.46 99 1016.6
20260901142513 70 201 0.0 0.0 0.12 1.46 1.46 99 1016.9
20260901142009 70 209 0.0 0.0 0.12 1.45 1.45 99 1017.0
20260901141508 70 202 0.0 0.0 0.05 1.44 1.44 99 1016.7
20260901141004 70 195 0.0 0.0 0.00 1.43 1.43 99 1016.7
20260901140502 70 209 0.0 0.0 0.12 1.43 1.43 99 1016.5
20260901135956 70 198 0.0 1.0 1.56 1.42 1.42 99 1016.9
20260901135455 70 170 1.0 1.0 1.37 1.38 1.38 99 1016.8
20260901134952 70 226 0.0 0.0 0.00 1.15 1.15 99 1017.3
20260901134448 70 200 0.0 0.0 0.00 1.15 1.15 99 1016.8
20260901133948 70 202 0.0 0.0 0.00 1.15 1.15 99 1016.7
20260901133446 70 203 0.0 0.0 0.00 1.15 1.15 99 1016.8
20260901132946 70 203 0.0 0.0 0.00 1.15 1.15 99 1016.9
20260901132446 70 202 0.0 0.0 0.00 1.15 1.15 99 1016.7
20260901131945 70 200 0.0 0.0 0.00 1.15 1.15 99 1016.7
20260901131444 70 202 0.0 0.0 0.00 1.15 1.15 99 1016.5
20260901130941 70 203 0.0 0.0 0.00 1.15 1.15 99 1016.6
20260901130435 70 202 0.0 0.0 0.00 1.15 1.15 99 1016.7
20260901125933 70 201 0.0 0.0 0.00 1.15 1.15 99 1016.8
20260901125433 70 208 0.0 0.0 0.00 1.15 1.15 99 1016.6
20260901124933 70 206 0.0 0.0 0.00 1.15 1.15 99 1016.8
20260901124428 70 198 0.0 0.0 0.00 1.15 1.15 99 1016.6
20260901123923 70 202 0.0 0.0 0.00 1.15 1.15 99 1016.6
20260901123418 70 202 0.0 0.0 0.00 1.15 1.15 99 1016.6
20260901122916 70 199 0.0 0.0 0.00 1.15 1.15 99 1016.6
20260901122411 70 202 0.0 0.0 0.00 1.15 1.15 99 1016.6
20260901121910 69 204 0.0 0.0 0.00 1.15 1.15 99 1016.6
20260901121405 69 201 0.0 0.0 0.00 1.15 1.15 99 1016.7
20260901120900 69 200 0.0 0.0 0.00 1.15 1.15 99 1016.9
20260901120355 69 202 0.0 0.0 0.00 1.15 1.15 99 1016.6
20260901115850 69 198 0.0 0.0 0.00 1.15 1.15 99 1016.8
20260901115350 69 199 0.0 0.0 0.00 1.15 1.15 99 1016.6
20260901114849 69 196 0.0 0.0 0.00 1.15 1.15 99 1017.0
20260901114349 69 204 0.0 0.0 0.07 1.15 1.15 99 1016.9
20260901113847 69 204 0.0 0.0 0.07 1.15 1.15 99 1017.0
20260901113346 69 207 0.0 0.0 0.00 1.14 1.14 99 1017.1
20260901112841 69 203 0.0 0.0 0.00 1.14 1.14 99 1016.9
20260901112336 69 206 0.0 0.0 0.05 1.14 1.14 99 1016.5
20260901111831 69 200 0.0 0.0 0.05 1.14 1.14 99 1016.5
20260901111329 69 201 0.0 0.0 0.00 1.13 1.13 99 1016.3
20260901110828 69 199 0.0 0.0 0.00 1.13 1.13 99 1016.6
20260901110324 69 199 0.0 0.0 0.00 1.13 1.13 99 1016.7
20260901105820 69 202 0.0 0.0 0.00 1.13 1.13 99 1016.9
20260901105320 69 204 0.0 0.0 0.00 1.13 1.13 99 1016.9
20260901104817 68 205 0.0 0.0 0.00 1.13 1.13 99 1016.9
20260901104312 68 203 0.0 0.0 0.00 1.13 1.13 99 1016.8
20260901103807 68 203 0.0 0.0 0.00 1.13 1.13 99 1016.9
20260901103306 68 202 0.0 0.0 0.00 1.13 1.13 99 1016.8
20260901102801 68 201 0.0 0.0 0.00 1.13 1.13 99 1016.9
20260901102256 68 201 0.0 0.0 0.00 1.13 1.13 99 1017.0
20260901101752 68 201 0.0 0.0 0.00 1.13 1.13 99 1016.8
20260901101251 68 209 0.0 0.0 0.00 1.13 1.13 99 1016.8
20260901100751 68 202 0.0 0.0 0.00 1.13 1.13 99 1016.7
20260901100246 68 202 0.0 0.0 0.00 1.13 1.13 99 1016.7
20260901095744 68 203 0.0 0.0 0.00 1.13 1.13 99 1016.5
20260901095242 68 202 0.0 0.0 0.00 1.13 1.13 99 1016.6
20260901094737 68 202 0.0 0.0 0.00 1.13 1.13 99 1016.7
20260901094231 68 207 0.0 0.0 0.00 1.13 1.13 99 1016.8
20260901093727 68 206 0.0 0.0 0.00 1.13 1.13 99 1016.9
20260901093225 68 202 0.0 0.0 0.00 1.13 1.13 99 1016.7
20260901092722 68 202 0.0 0.0 0.00 1.13 1.13 99 1016.5
20260901092218 68 205 0.0 0.0 0.00 1.13 1.13 99 1016.6
20260901091713 68 203 0.0 0.0 0.00 1.13 1.13 99 1016.9
20260901091208 68 202 0.0 0.0 0.00 1.13 1.13 99 1016.7
20260901090702 68 203 0.0 0.0 0.00 1.13 1.13 99 1016.7
20260901090158 68 203 0.0 0.0 0.00 1.13 1.13 99 1017.0
20260901085654 68 201 0.0 0.0 0.00 1.13 1.13 99 1016.9
20260901085149 68 202 0.0 0.0 0.00 1.13 1.13 99 1016.8
20260901084645 68 203 0.0 0.0 0.00 1.13 1.13 99 1016.9
20260901084141 68 205 0.0 0.0 0.00 1.13 1.13 99 1016.9
20260901083635 68 208 0.0 0.0 0.00 1.13 1.13 99 1017.0
20260901083134 68 201 0.0 0.0 0.00 1.13 1.13 99 1017.0
20260901082633 68 203 0.0 0.0 0.00 1.13 1.13 99 1017.1
20260901082130 68 203 0.0 0.0 0.00 1.13 1.13 99 1017.0
20260901081625 68 199 0.0 0.0 0.00 1.13 1.13 99 1017.0
20260901081120 68 205 0.0 0.0 0.00 1.13 1.13 99 1017.0
20260901080620 68 199 0.0 0.0 0.00 1.13 1.13 99 1017.0
20260901080118 68 199 0.0 0.0 0.00 1.13 1.13 99 1017.2
20260901075614 68 200 0.0 0.0 0.00 1.13 1.13 99 1017.3
20260901075114 68 200 0.0 0.0 0.00 1.13 1.13 99 1017.3
20260901074607 68 200 0.0 0.0 0.00 1.13 1.13 99 1017.4
20260901074103 68 200 0.0 0.0 0.00 1.13 1.13 99 1017.4
20260901073559 68 198 0.0 0.0 0.00 1.13 1.13 99 1017.4
20260901073059 68 200 0.0 0.0 0.00 1.13 1.13 99 1017.4
20260901072555 68 200 0.0 0.0 0.00 1.13 1.13 99 1017.3
20260901072050 68 199 0.0 0.0 0.00 1.13 1.13 99 1017.3
20260901071549 68 192 0.0 0.0 0.00 1.13 1.13 99 1017.3
20260901071048 68 197 0.0 0.0 0.00 1.13 1.13 99 1017.4
20260901070537 68 200 0.0 0.0 0.00 1.13 1.13 99 1017.5
20260901070033 68 198 0.0 0.0 0.00 1.13 1.13 99 1017.5
20260901065527 68 200 0.0 0.0 0.00 1.13 1.13 99 1017.6
20260901065021 68 201 0.0 0.0 0.00 1.13 1.13 99 1017.5
20260901064518 68 200 0.0 0.0 0.00 1.13 1.13 99 1017.4
20260901064015 68 193 0.0 0.0 0.00 1.13 1.13 99 1017.4
20260901063506 68 200 0.0 0.0 0.00 1.13 1.13 99 1017.7
20260901063002 68 200 0.0 0.0 0.00 1.13 1.13 99 1017.6
20260901062457 68 201 0.0 0.0 0.00 1.13 1.13 99 1017.7
20260901061953 68 199 0.0 0.0 0.00 1.13 1.13 99 1017.7
20260901061449 68 195 0.0 0.0 0.00 1.13 1.13 99 1017.9
20260901060948 68 202 0.0 0.0 0.07 1.13 1.13 99 1017.9
20260901060438 68 199 0.0 0.0 0.24 1.13 1.13 99 1017.7
20260901055937 68 200 0.0 0.0 0.54 1.11 1.11 99 1018.0
20260901055434 68 201 0.0 0.0 0.42 1.08 1.08 99 1017.7
20260901054930 68 200 0.0 0.0 0.24 1.01 1.01 99 1018.0
20260901054428 68 195 0.0 0.0 0.50 1.00 1.00 99 1017.7
20260901053923 68 198 0.0 0.0 0.78 0.95 0.95 99 1018.0
20260901053418 68 195 0.0 0.0 0.94 0.90 0.90 99 1017.8